Weather History for KRCA - December, 2012

Change the Weather History Date:

Sunday, December 30, 2012

  Actual Average Record
Temperature  
Mean Temperature 21 °F -  
Max Temperature 30 °F 35 °F 51 °F (2004)
Min Temperature 10 °F 14 °F -11 °F (2014)
Degree Days  
Heating Degree Days 44    
Moisture  
Dew Point 14 °F    
Average Humidity 74    
Maximum Humidity 90    
Minimum Humidity 53    
Precipitation  
Precipitation 0.00 in - - ()
Sea Level Pressure  
Sea Level Pressure 30.09 in    
Wind  
Wind Speed 10 mph (NNW)    
Max Wind Speed 25 mph    
Max Gust Speed 31 mph    
Visibility 10 miles    
Events      
Averages and records for this station are not official NWS values.
T = Trace of Precipitation, MM = Missing Value Source: NWS Daily Summary

Daily Weather History Graph

Daily Weather History Graph

Search for Another Location

Airport or City:

Trip Planner

Search our weather history database for the weather conditions in past years. The results will help you decide how hot, cold, wet, or windy it might be!

Date:

Astronomy

Dec. 30, 2012 Rise Set
Actual Time 7:27 AM MST 4:23 PM MST
Civil Twilight 6:54 AM MST 4:56 PM MST
Nautical Twilight 6:17 AM MST 5:32 PM MST
Astronomical Twilight 5:42 AM MST 6:07 PM MST
Moon 7:02 PM MST (12/30) 8:32 AM MST (12/30)
Length of Visible Light 10h 01m
Length of Day
8h 55m
Waning Gibbous, 95% of the Moon is Illuminated
Dec 30
Waning Gibbous
Jan 4
Last Quarter
Jan 11
New
Jan 18
First Quarter
Jan 26
Full

Hourly Weather History & Observations

Time (MST) Temp. Windchill Dew Point Humidity Pressure Visibility Wind Dir Wind Speed Gust Speed Precip Events Conditions
12:55 AM 15.6 °F 8.3 °F 10.9 °F 82% 30.00 in 10.0 mi West 4.6 mph - N/A   Mostly Cloudy
1:55 AM 17.4 °F - 11.8 °F 79% 29.99 in 10.0 mi Calm Calm - N/A   Overcast
2:55 AM 12.2 °F -0.2 °F 7.3 °F 81% 29.99 in 10.0 mi NW 9.2 mph - N/A   Partly Cloudy
3:55 AM 14.4 °F - 8.1 °F 76% 29.99 in 10.0 mi Calm Calm - N/A   Clear
4:55 AM 18.3 °F - 8.4 °F 65% 29.99 in 10.0 mi Calm Calm - N/A   Clear
5:55 AM 15.8 °F 2.7 °F 7.0 °F 68% 30.01 in 10.0 mi WNW 11.5 mph - N/A   Clear
6:55 AM 21.7 °F 9.0 °F 7.7 °F 55% 30.02 in 10.0 mi NNW 13.8 mph - N/A   Clear
7:55 AM 20.7 °F 7.1 °F 11.1 °F 67% 30.04 in 10.0 mi NNW 15.0 mph - N/A   Clear
8:55 AM 24.1 °F 11.0 °F 12.0 °F 60% 30.05 in 10.0 mi North 16.1 mph - N/A   Clear
9:55 AM 28.9 °F 17.7 °F 13.6 °F 53% 30.06 in 10.0 mi NNW 15.0 mph 23.0 mph N/A   Clear
10:55 AM 29.3 °F 17.7 °F 15.8 °F 57% 30.07 in 10.0 mi North 16.1 mph - N/A   Clear
11:55 AM 30.2 °F 17.4 °F 18.0 °F 60% 30.07 in 10.0 mi North 20.7 mph - N/A   Clear
12:55 PM 28.8 °F 15.5 °F 20.7 °F 72% 30.05 in 10.0 mi NNW 20.7 mph - N/A   Clear
1:55 PM 29.5 °F 15.3 °F 20.3 °F 69% 30.07 in 10.0 mi North 25.3 mph 31.1 mph N/A   Clear
2:55 PM 29.5 °F 15.5 °F 20.7 °F 70% 30.10 in 10.0 mi North 24.2 mph 29.9 mph N/A   Clear
3:55 PM 29.1 °F 15.4 °F 19.6 °F 68% 30.13 in 10.0 mi NNW 23.0 mph 31.1 mph N/A   Clear
4:55 PM 25.7 °F 12.3 °F 19.4 °F 77% 30.15 in 10.0 mi North 18.4 mph - N/A   Clear
5:55 PM 23.9 °F 11.2 °F 19.8 °F 84% 30.19 in 10.0 mi North 15.0 mph - N/A   Clear
6:55 PM 22.6 °F 10.1 °F 19.2 °F 87% 30.18 in 10.0 mi North 13.8 mph - N/A   Clear
7:55 PM 21.7 °F 10.8 °F 18.9 °F 89% 30.19 in 10.0 mi NNW 10.4 mph - N/A   Clear
8:55 PM 17.2 °F 8.9 °F 14.7 °F 90% 30.19 in 10.0 mi WNW 5.8 mph - N/A   Clear
9:55 PM 18.0 °F 8.7 °F 15.3 °F 89% 30.18 in 10.0 mi NNW 6.9 mph - N/A   Clear
10:55 PM 12.9 °F 5.2 °F 9.7 °F 87% 30.19 in 10.0 mi West 4.6 mph - N/A   Clear
11:55 PM 10.6 °F 2.5 °F 7.2 °F 86% 30.20 in 10.0 mi West 4.6 mph - N/A   Clear